Location: ???? ???? ?????
(31.2680°N, 31.7283°E)
Time: 19:12:29
(UTC+00:00)

Terra - Pass Details

Date: 13 July 2020
Orbit: 701 x 703 km, 98.2° (Epoch: 06 August)

Event Time Altitude Azimuth Distance (km) Brightness Sun altitude
Exits shadow 19:42:27 42° 34° (NE) 1,004 2.6 -27.8°
Drops below altitude 10° 19:45:59 10° 360° (N) 2,173 5.0 -28.2°
Sets 19:48:17 0° 355° (N) 3,094 6.0 -28.5°
